Location: Ago
(8.4667°N, 4.4833°E)
Time: 23:29:02
(UTC+00:00)

GPS 2-17 Rocket1 - Pass Details

Date: 18 September 2020
Orbit: 571 x 659 km, 20.3° (Epoch: 20 October)

Event Time Altitude Azimuth Distance (km) Brightness Sun altitude
Rises 18:06:03 0° 253° (WSW) 2,853 8.1 -7.2°
Reaches altitude 10° 18:08:22 10° 255° (WSW) 1,964 7.0 -7.8°
Maximum altitude 18:12:58 77° 340° (NNW) 643 3.2 -8.9°
Enters shadow 18:17:41 10° 67° (ENE) 2,002 5.1 -10.1°
